| time (UTC) | temp F | wind direction | speed knots | gust knots | rain 1hr in | rain 24hr in | rain mn in | humidity % | barometer mb |
| 20260831185517 | 77 | 109 | 12.2 | 17.4 | 0.00 | 0.00 | 0.00 | 47 | 1014.8 |
| 20260831184522 | 77 | 108 | 11.3 | 14.8 | 0.00 | 0.00 | 0.00 | 47 | 1014.8 |
| 20260831183518 | 77 | 105 | 11.3 | 14.8 | 0.00 | 0.00 | 0.00 | 46 | 1014.7 |
| 20260831182558 | 78 | 108 | 10.4 | 13.0 | 0.00 | 0.00 | 0.00 | 46 | 1014.7 |
| 20260831181518 | 78 | 109 | 11.3 | 13.0 | 0.00 | 0.00 | 0.00 | 46 | 1014.7 |
| 20260831180521 | 78 | 118 | 9.6 | 13.9 | 0.00 | 0.00 | 0.00 | 46 | 1014.6 |
| 20260831175521 | 78 | 123 | 9.6 | 13.9 | 0.00 | 0.00 | 0.00 | 46 | 1014.6 |
| 20260831174522 | 79 | 119 | 7.8 | 13.0 | 0.00 | 0.00 | 0.00 | 46 | 1014.5 |
| 20260831173516 | 79 | 126 | 7.0 | 11.3 | 0.00 | 0.00 | 0.00 | 45 | 1014.4 |
| 20260831172523 | 80 | 125 | 7.8 | 9.6 | 0.00 | 0.00 | 0.00 | 45 | 1014.3 |
| 20260831171523 | 80 | 112 | 7.8 | 11.3 | 0.00 | 0.00 | 0.00 | 44 | 1014.1 |
| 20260831170522 | 81 | 117 | 7.8 | 11.3 | 0.00 | 0.00 | 0.00 | 44 | 1014.1 |
| 20260831165517 | 81 | 118 | 8.7 | 13.9 | 0.00 | 0.00 | 0.00 | 43 | 1014.1 |
| 20260831164521 | 82 | 116 | 7.8 | 13.0 | 0.00 | 0.00 | 0.00 | 42 | 1014.0 |
| 20260831163517 | 83 | 118 | 7.0 | 9.6 | 0.00 | 0.00 | 0.00 | 41 | 1013.9 |
| 20260831162541 | 84 | 132 | 7.0 | 10.4 | 0.00 | 0.00 | 0.00 | 40 | 1013.9 |
| 20260831161517 | 85 | 130 | 6.1 | 9.6 | 0.00 | 0.00 | 0.00 | 40 | 1013.9 |
| 20260831160521 | 86 | 137 | 7.0 | 11.3 | 0.00 | 0.00 | 0.00 | 39 | 1013.9 |
| 20260831155557 | 86 | 133 | 5.2 | 10.4 | 0.00 | 0.00 | 0.00 | 38 | 1014.0 |
| 20260831154521 | 87 | 129 | 8.7 | 14.8 | 0.00 | 0.00 | 0.00 | 37 | 1014.0 |
| 20260831153517 | 87 | 120 | 15.6 | 23.5 | 0.00 | 0.00 | 0.00 | 36 | 1014.1 |
| 20260831152522 | 88 | 120 | 14.8 | 25.2 | 0.00 | 0.00 | 0.00 | 36 | 1014.1 |
| 20260831151516 | 88 | 127 | 13.0 | 25.2 | 0.00 | 0.00 | 0.00 | 36 | 1014.0 |
| 20260831150521 | 88 | 126 | 13.9 | 20.9 | 0.00 | 0.00 | 0.00 | 36 | 1013.9 |
| 20260831145516 | 89 | 134 | 13.0 | 24.3 | 0.00 | 0.00 | 0.00 | 36 | 1014.0 |
| 20260831144520 | 89 | 126 | 12.2 | 26.1 | 0.00 | 0.00 | 0.00 | 36 | 1014.0 |
| 20260831143556 | 89 | 135 | 13.0 | 21.7 | 0.00 | 0.00 | 0.00 | 37 | 1014.1 |
| 20260831142519 | 89 | 115 | 12.2 | 20.0 | 0.00 | 0.00 | 0.00 | 35 | 1014.2 |
| 20260831141517 | 90 | 148 | 13.9 | 24.3 | 0.00 | 0.00 | 0.00 | 37 | 1014.2 |
| 20260831140518 | 90 | 140 | 11.3 | 16.5 | 0.00 | 0.00 | 0.00 | 36 | 1014.1 |
| 20260831135518 | 90 | 129 | 10.4 | 20.0 | 0.00 | 0.00 | 0.00 | 36 | 1014.1 |
| 20260831134522 | 90 | 118 | 13.0 | 19.1 | 0.00 | 0.00 | 0.00 | 37 | 1014.2 |
| 20260831133522 | 90 | 136 | 10.4 | 16.5 | 0.00 | 0.00 | 0.00 | 37 | 1014.4 |
| 20260831132520 | 90 | 133 | 13.0 | 22.6 | 0.00 | 0.00 | 0.00 | 37 | 1014.4 |
| 20260831131537 | 90 | 122 | 8.7 | 14.8 | 0.00 | 0.00 | 0.00 | 37 | 1014.4 |
| 20260831130541 | 90 | 123 | 9.6 | 27.8 | 0.00 | 0.00 | 0.00 | 38 | 1014.5 |
| 20260831125517 | 90 | 109 | 11.3 | 18.2 | 0.00 | 0.00 | 0.00 | 38 | 1014.5 |
| 20260831124521 | 90 | 138 | 10.4 | 24.3 | 0.00 | 0.00 | 0.00 | 38 | 1014.7 |
| 20260831123517 | 90 | 141 | 9.6 | 13.9 | 0.00 | 0.00 | 0.00 | 39 | 1014.7 |
| 20260831122522 | 90 | 116 | 9.6 | 18.2 | 0.00 | 0.00 | 0.00 | 39 | 1014.7 |
| 20260831121522 | 89 | 125 | 11.3 | 19.1 | 0.00 | 0.00 | 0.00 | 39 | 1015.0 |
| 20260831120542 | 89 | 153 | 11.3 | 24.3 | 0.00 | 0.00 | 0.00 | 40 | 1015.0 |
| 20260831115518 | 89 | 150 | 11.3 | 20.0 | 0.00 | 0.00 | 0.00 | 41 | 1015.1 |
| 20260831114518 | 88 | 115 | 18.2 | 26.1 | 0.00 | 0.00 | 0.00 | 40 | 1015.2 |
| 20260831113518 | 88 | 112 | 15.6 | 24.3 | 0.00 | 0.00 | 0.00 | 40 | 1015.2 |
| 20260831112521 | 89 | 146 | 12.2 | 18.2 | 0.00 | 0.00 | 0.00 | 41 | 1015.2 |
| 20260831111517 | 88 | 147 | 12.2 | 29.5 | 0.00 | 0.00 | 0.00 | 41 | 1015.3 |
| 20260831110541 | 88 | 148 | 19.1 | 35.6 | 0.00 | 0.00 | 0.00 | 41 | 1015.4 |
| 20260831105520 | 88 | 132 | 17.4 | 36.5 | 0.00 | 0.00 | 0.00 | 41 | 1015.5 |
| 20260831104521 | 88 | 117 | 13.9 | 26.1 | 0.00 | 0.00 | 0.00 | 41 | 1015.6 |
| 20260831103536 | 88 | 140 | 15.6 | 27.8 | 0.00 | 0.00 | 0.00 | 41 | 1015.7 |
| 20260831102522 | 87 | 135 | 13.9 | 27.8 | 0.00 | 0.00 | 0.00 | 42 | 1015.8 |
| 20260831101516 | 87 | 151 | 15.6 | 29.5 | 0.00 | 0.00 | 0.00 | 42 | 1015.9 |
| 20260831100520 | 86 | 119 | 16.5 | 29.5 | 0.00 | 0.00 | 0.00 | 42 | 1016.0 |
| 20260831095559 | 86 | 118 | 19.1 | 29.5 | 0.00 | 0.00 | 0.00 | 42 | 1016.0 |
| 20260831094520 | 86 | 115 | 13.9 | 27.8 | 0.00 | 0.00 | 0.00 | 42 | 1016.0 |
| 20260831093519 | 85 | 135 | 15.6 | 20.9 | 0.00 | 0.00 | 0.00 | 43 | 1016.1 |
| 20260831092522 | 85 | 124 | 20.0 | 26.9 | 0.00 | 0.00 | 0.00 | 43 | 1016.2 |
| 20260831091522 | 85 | 126 | 12.2 | 23.5 | 0.00 | 0.00 | 0.00 | 43 | 1016.1 |
| 20260831090520 | 85 | 155 | 16.5 | 36.5 | 0.00 | 0.00 | 0.00 | 44 | 1016.4 |
| 20260831085521 | 84 | 127 | 13.9 | 24.3 | 0.00 | 0.00 | 0.00 | 44 | 1016.5 |
| 20260831084521 | 84 | 137 | 17.4 | 26.1 | 0.00 | 0.00 | 0.00 | 44 | 1016.6 |
| 20260831083517 | 84 | 145 | 13.9 | 23.5 | 0.00 | 0.00 | 0.00 | 45 | 1016.7 |
| 20260831082521 | 83 | 127 | 14.8 | 26.9 | 0.00 | 0.00 | 0.00 | 45 | 1016.7 |
| 20260831081538 | 82 | 154 | 14.8 | 22.6 | 0.00 | 0.00 | 0.00 | 46 | 1016.8 |
| 20260831080558 | 82 | 159 | 13.9 | 24.3 | 0.00 | 0.00 | 0.00 | 47 | 1016.8 |
| 20260831075517 | 81 | 108 | 13.9 | 23.5 | 0.00 | 0.00 | 0.00 | 49 | 1016.8 |
| 20260831074522 | 80 | 126 | 13.9 | 24.3 | 0.00 | 0.00 | 0.00 | 50 | 1016.8 |
| 20260831073522 | 79 | 115 | 10.4 | 17.4 | 0.00 | 0.00 | 0.00 | 51 | 1016.8 |
| 20260831072542 | 79 | 113 | 10.4 | 18.2 | 0.00 | 0.00 | 0.00 | 51 | 1016.9 |
| 20260831071522 | 78 | 117 | 14.8 | 22.6 | 0.00 | 0.00 | 0.00 | 51 | 1016.9 |
| 20260831070521 | 78 | 121 | 14.8 | 28.7 | 0.00 | 0.00 | 0.00 | 51 | 1016.8 |
| 20260831065521 | 77 | 111 | 13.9 | 22.6 | 0.00 | 0.00 | 0.00 | 53 | 1016.8 |
| 20260831064518 | 76 | 120 | 13.0 | 19.1 | 0.00 | 0.00 | 0.00 | 54 | 1016.8 |
| 20260831063517 | 76 | 112 | 11.3 | 20.9 | 0.00 | 0.00 | 0.00 | 55 | 1016.9 |
| 20260831062539 | 75 | 117 | 13.9 | 26.9 | 0.00 | 0.00 | 0.00 | 55 | 1016.9 |
| 20260831061520 | 75 | 118 | 9.6 | 16.5 | 0.00 | 0.00 | 0.00 | 57 | 1016.9 |
| 20260831060542 | 74 | 121 | 9.6 | 22.6 | 0.00 | 0.00 | 0.00 | 59 | 1017.0 |
| 20260831055522 | 73 | 113 | 8.7 | 13.0 | 0.00 | 0.00 | 0.00 | 62 | 1017.0 |
| 20260831054518 | 71 | 85 | 11.3 | 26.1 | 0.00 | 0.00 | 0.00 | 63 | 1017.0 |
| 20260831053520 | 71 | 108 | 10.4 | 15.6 | 0.00 | 0.00 | 0.00 | 64 | 1017.0 |
| 20260831052518 | 71 | 119 | 3.5 | 8.7 | 0.00 | 0.00 | 0.00 | 66 | 1017.0 |
| 20260831051518 | 70 | 106 | 5.2 | 10.4 | 0.00 | 0.00 | 0.00 | 67 | 1017.0 |
| 20260831050521 | 69 | 113 | 6.1 | 9.6 | 0.00 | 0.00 | 0.00 | 66 | 1017.0 |
| 20260831045518 | 68 | 19 | 1.7 | 6.1 | 0.00 | 0.00 | 0.00 | 67 | 1017.0 |
| 20260831044522 | 68 | 188 | 4.3 | 7.8 | 0.00 | 0.00 | 0.00 | 65 | 1017.0 |
| 20260831043540 | 69 | 146 | 5.2 | 7.8 | 0.00 | 0.00 | 0.00 | 64 | 1016.9 |
| 20260831042521 | 68 | 135 | 6.1 | 9.6 | 0.00 | 0.00 | 0.00 | 63 | 1016.8 |
| 20260831041520 | 68 | 110 | 2.6 | 7.0 | 0.00 | 0.00 | 0.00 | 64 | 1016.8 |
| 20260831040518 | 68 | 190 | 4.3 | 8.7 | 0.00 | 0.00 | 0.00 | 64 | 1016.8 |
| 20260831035517 | 67 | 118 | 7.0 | 9.6 | 0.00 | 0.00 | 0.00 | 63 | 1016.8 |
| 20260831034521 | 68 | 125 | 6.1 | 9.6 | 0.00 | 0.00 | 0.00 | 62 | 1016.8 |
| 20260831033521 | 68 | 116 | 11.3 | 15.6 | 0.00 | 0.00 | 0.00 | 62 | 1016.8 |
| 20260831032521 | 68 | 106 | 10.4 | 14.8 | 0.00 | 0.00 | 0.00 | 62 | 1016.8 |
| 20260831030520 | 68 | 119 | 12.2 | 16.5 | 0.00 | 0.00 | 0.00 | 62 | 1016.7 |
| 20260831025516 | 68 | 95 | 7.8 | 11.3 | 0.00 | 0.00 | 0.00 | 62 | 1016.6 |
| 20260831024520 | 68 | 112 | 7.0 | 11.3 | 0.00 | 0.00 | 0.00 | 63 | 1016.7 |
| 20260831023518 | 68 | 113 | 5.2 | 9.6 | 0.00 | 0.00 | 0.00 | 63 | 1016.7 |
| 20260831022522 | 68 | 126 | 8.7 | 12.2 | 0.00 | 0.00 | 0.00 | 62 | 1016.6 |
| 20260831021522 | 68 | 126 | 7.8 | 15.6 | 0.00 | 0.00 | 0.00 | 63 | 1016.8 |
| 20260831020521 | 68 | 80 | 6.1 | 10.4 | 0.00 | 0.00 | 0.00 | 64 | 1016.8 |
| 20260831015517 | 68 | 119 | 4.3 | 7.8 | 0.00 | 0.00 | 0.00 | 63 | 1016.8 |
| 20260831014541 | 68 | 155 | 2.6 | 10.4 | 0.00 | 0.00 | 0.00 | 63 | 1016.9 |
| 20260831013517 | 69 | 136 | 5.2 | 9.6 | 0.00 | 0.01 | 0.00 | 63 | 1016.9 |
| 20260831012521 | 69 | 128 | 10.4 | 17.4 | 0.00 | 0.01 | 0.00 | 62 | 1017.0 |
| 20260831011517 | 69 | 54 | 7.8 | 12.2 | 0.00 | 0.01 | 0.00 | 63 | 1017.0 |
| 20260831010521 | 69 | 118 | 7.0 | 12.2 | 0.00 | 0.01 | 0.00 | 63 | 1017.0 |
| 20260831005537 | 69 | 108 | 7.0 | 12.2 | 0.00 | 0.01 | 0.00 | 63 | 1016.9 |
| 20260831004521 | 70 | 128 | 7.8 | 10.4 | 0.00 | 0.01 | 0.00 | 62 | 1017.0 |
| 20260831003517 | 70 | 131 | 8.7 | 14.8 | 0.00 | 0.01 | 0.00 | 63 | 1017.0 |
| 20260831002601 | 69 | 123 | 9.6 | 14.8 | 0.00 | 0.01 | 0.00 | 64 | 1017.1 |
| 20260831001517 | 69 | 117 | 7.8 | 11.3 | 0.00 | 0.01 | 0.00 | 64 | 1017.1 |
| 20260831000521 | 70 | 117 | 8.7 | 11.3 | 0.00 | 0.01 | 0.00 | 63 | 1017.1 |
| 20260830235519 | 70 | 124 | 9.6 | 13.9 | 0.00 | 0.01 | 0.00 | 64 | 1017.0 |
| 20260830234537 | 70 | 113 | 8.7 | 13.9 | 0.00 | 0.01 | 0.00 | 64 | 1017.1 |
| 20260830233537 | 70 | 108 | 8.7 | 11.3 | 0.00 | 0.01 | 0.00 | 64 | 1017.1 |
| 20260830232541 | 70 | 116 | 10.4 | 13.9 | 0.00 | 0.01 | 0.00 | 64 | 1017.1 |
| 20260830231522 | 69 | 109 | 9.6 | 16.5 | 0.00 | 0.01 | 0.00 | 65 | 1017.1 |
| 20260830230522 | 70 | 110 | 12.2 | 30.4 | 0.00 | 0.01 | 0.00 | 65 | 1017.1 |
| 20260830225542 | 70 | 112 | 8.7 | 13.9 | 0.00 | 0.01 | 0.00 | 66 | 1017.1 |
| 20260830224520 | 70 | 108 | 12.2 | 14.8 | 0.00 | 0.01 | 0.00 | 66 | 1017.0 |
| 20260830223520 | 70 | 110 | 11.3 | 14.8 | 0.00 | 0.01 | 0.00 | 66 | 1017.1 |
| 20260830222518 | 70 | 118 | 6.1 | 9.6 | 0.00 | 0.01 | 0.00 | 67 | 1017.2 |
| 20260830221556 | 70 | 108 | 9.6 | 16.5 | 0.00 | 0.01 | 0.00 | 67 | 1017.2 |
| 20260830220518 | 70 | 103 | 8.7 | 12.2 | 0.00 | 0.01 | 0.00 | 66 | 1017.1 |
| 20260830215516 | 70 | 106 | 11.3 | 16.5 | 0.00 | 0.01 | 0.00 | 66 | 1017.1 |
| 20260830214540 | 70 | 106 | 7.0 | 10.4 | 0.00 | 0.01 | 0.00 | 66 | 1017.1 |
| 20260830213536 | 70 | 127 | 2.6 | 7.8 | 0.00 | 0.01 | 0.00 | 65 | 1017.1 |
| 20260830212522 | 71 | 129 | 5.2 | 13.0 | 0.00 | 0.01 | 0.00 | 64 | 1017.0 |
| 20260830211522 | 72 | 108 | 4.3 | 7.8 | 0.00 | 0.01 | 0.00 | 64 | 1016.9 |
| 20260830210520 | 72 | 112 | 8.7 | 10.4 | 0.00 | 0.01 | 0.00 | 62 | 1016.8 |
| 20260830205522 | 72 | 109 | 7.8 | 11.3 | 0.00 | 0.01 | 0.01 | 62 | 1016.7 |
| 20260830204521 | 73 | 104 | 10.4 | 14.8 | 0.00 | 0.01 | 0.01 | 61 | 1016.8 |
| 20260830203521 | 73 | 106 | 10.4 | 15.6 | 0.00 | 0.01 | 0.01 | 61 | 1016.8 |
| 20260830202521 | 73 | 108 | 7.8 | 9.6 | 0.00 | 0.01 | 0.01 | 61 | 1016.7 |
| 20260830201517 | 73 | 96 | 7.8 | 10.4 | 0.00 | 0.01 | 0.01 | 61 | 1016.7 |
| 20260830200521 | 72 | 104 | 6.1 | 7.8 | 0.00 | 0.01 | 0.01 | 62 | 1016.6 |
| 20260830195522 | 72 | 116 | 3.5 | 4.3 | 0.00 | 0.01 | 0.01 | 62 | 1016.5 |
| 20260830194519 | 73 | 110 | 0.0 | 3.5 | 0.00 | 0.01 | 0.01 | 62 | 1016.6 |
| 20260830193517 | 73 | 0.0 | 0.0 | 0.00 | 0.01 | 0.01 | 61 | 1016.5 | |
| 20260830192522 | 73 | 121 | 5.2 | 7.8 | 0.00 | 0.01 | 0.01 | 61 | 1016.5 |
| 20260830191521 | 74 | 126 | 3.5 | 6.1 | 0.00 | 0.01 | 0.01 | 61 | 1016.5 |
| 20260830190520 | 74 | 119 | 5.2 | 7.8 | 0.00 | 0.01 | 0.01 | 60 | 1016.5 |